Jackson, MN

8:45 AM CST on November 21, 2019 (GMT -0600)
Jackson Municipal

Weather History for KMJQ - August, 2019

Change the Weather History Date:

Sunday, August 11, 2019

  Actual Average Record
Temperature  
Mean Temperature 70 °F -  
Max Temperature 75 °F 76 °F 91 °F (2007)
Min Temperature 64 °F 56 °F 44 °F (2004)
Cooling Degree Days 4    
Growing Degree Days 20 (Base 50)    
Moisture  
Dew Point 65 °F    
Average Humidity 89    
Maximum Humidity 100    
Minimum Humidity 73    
Precipitation  
Precipitation 0.00 in - - ()
Sea Level Pressure  
Sea Level Pressure 30.00 in    
Wind  
Wind Speed 5 mph (NNE)    
Max Wind Speed 9 mph    
Max Gust Speed 16 mph    
Visibility 6 miles    
Events      
Averages and records for this station are not official NWS values.
T = Trace of Precipitation, MM = Missing Value Source: NWS Daily Summary

Daily Weather History Graph

Daily Weather History Graph

Search for Another Location

Airport or City:

Astronomy

Aug. 11, 2019 Rise Set
Actual Time 6:19 AM CDT 8:29 PM CDT
Civil Twilight 5:48 AM CDT 9:01 PM CDT
Nautical Twilight 5:09 AM CDT 9:39 PM CDT
Astronomical Twilight 4:26 AM CDT 10:22 PM CDT
Moon 6:14 PM CDT (8/11) 2:36 AM CDT (8/11)
Length of Visible Light 15h 12m
Length of Day
14h 09m
Waxing Gibbous, 87% of the Moon is Illuminated
Aug 11
Waxing Gibbous
Aug 15
Full
Aug 23
Last Quarter
Aug 30
New
Sep 5
First Quarter

Hourly Weather History & Observations

Time (CDT) Temp. Dew Point Humidity Pressure Visibility Wind Dir Wind Speed Gust Speed Precip Events Conditions
12:15 AM 71.6 °F 71.6 °F 100% 29.95 in 0.2 mi Calm Calm - N/A   Overcast
12:35 AM 71.6 °F 71.6 °F 100% 29.96 in 0.2 mi NW 3.5 mph - N/A   Overcast
12:55 AM 71.6 °F 71.6 °F 100% 29.96 in 0.2 mi NW 3.5 mph - N/A   Overcast
1:15 AM 71.6 °F 71.6 °F 100% 29.96 in 0.2 mi NNW 4.6 mph - N/A   Overcast
1:35 AM 69.8 °F 69.8 °F 100% 29.95 in 0.2 mi NNW 4.6 mph - N/A   Overcast
1:55 AM 69.8 °F 69.8 °F 100% 29.95 in 0.2 mi NNW 3.5 mph - N/A   Overcast
2:15 AM 69.8 °F 69.8 °F 100% 29.95 in 0.5 mi NNW 4.6 mph - N/A   Overcast
2:35 AM 68.0 °F 68.0 °F 100% 29.96 in 0.8 mi NNW 9.2 mph - N/A   Overcast
2:55 AM 68.0 °F 68.0 °F 100% 29.96 in 0.8 mi NNW 8.1 mph - N/A   Overcast
2:56 AM 68.0 °F 68.0 °F 100% 29.96 in 0.8 mi NNW 8.1 mph - N/A   Overcast
3:15 AM 68.0 °F 68.0 °F 100% 29.97 in 2.5 mi NNW 9.2 mph - N/A   Overcast
3:35 AM 68.0 °F 68.0 °F 100% 29.97 in 0.5 mi NNW 6.9 mph - N/A   Overcast
3:55 AM 66.2 °F 66.2 °F 100% 29.98 in 1.8 mi NNW 9.2 mph 16.1 mph N/A   Overcast
4:15 AM 66.2 °F 66.2 °F 100% 29.98 in 3.0 mi NNW 4.6 mph - N/A   Overcast
4:35 AM 66.2 °F 66.2 °F 100% 29.98 in 1.0 mi NNW 6.9 mph - N/A   Overcast
4:55 AM 66.2 °F 66.2 °F 100% 29.98 in 0.8 mi NNW 5.8 mph - N/A   Overcast
5:15 AM 64.4 °F 64.4 °F 100% 29.99 in 0.8 mi North 3.5 mph - N/A   Overcast
5:35 AM 64.4 °F 64.4 °F 100% 29.99 in 1.5 mi North 3.5 mph - N/A   Overcast
5:55 AM 64.4 °F 64.4 °F 100% 29.99 in 1.0 mi NNW 6.9 mph - N/A   Overcast
5:56 AM 64.4 °F 64.4 °F 100% 29.99 in 1.0 mi NNW 6.9 mph - N/A   Overcast
6:15 AM 64.4 °F 64.4 °F 100% 29.98 in 1.2 mi North 5.8 mph - N/A   Overcast
6:35 AM 64.4 °F 64.4 °F 100% 29.98 in 0.8 mi North 4.6 mph - N/A   Overcast
6:36 AM 64.4 °F 64.4 °F 100% 29.98 in 0.8 mi North 4.6 mph - N/A   Overcast
6:55 AM 64.4 °F 64.4 °F 100% 29.98 in 1.5 mi North 3.5 mph - N/A   Overcast
7:15 AM 64.4 °F 64.4 °F 100% 29.98 in 1.8 mi North 4.6 mph - N/A   Overcast
7:16 AM 64.4 °F 64.4 °F 100% 29.98 in 1.8 mi North 3.5 mph - N/A   Overcast
7:35 AM 64.4 °F 64.4 °F 100% 29.99 in 3.0 mi North 4.6 mph - N/A   Overcast
7:55 AM 64.4 °F 64.4 °F 100% 30.00 in 3.0 mi North 4.6 mph - N/A   Overcast
8:15 AM 66.2 °F 66.2 °F 100% 30.00 in 4.0 mi North 3.5 mph - N/A   Overcast
8:35 AM 66.2 °F 66.2 °F 100% 30.01 in 5.0 mi North 4.6 mph - N/A   Overcast
8:55 AM 66.2 °F 64.4 °F 94% 30.01 in 7.0 mi North 6.9 mph - N/A   Overcast
9:15 AM 66.2 °F 64.4 °F 94% 30.01 in 7.0 mi North 4.6 mph - N/A   Overcast
9:35 AM 68.0 °F 64.4 °F 88% 30.03 in 10.0 mi North 3.5 mph - N/A   Overcast
9:55 AM 68.0 °F 64.4 °F 88% 30.03 in 10.0 mi NE 3.5 mph - N/A   Overcast
10:15 AM 68.0 °F 64.4 °F 88% 30.03 in 10.0 mi NNE 5.8 mph - N/A   Overcast
10:35 AM 69.8 °F 64.4 °F 83% 30.03 in 10.0 mi NNE 6.9 mph - N/A   Overcast
10:55 AM 69.8 °F 64.4 °F 83% 30.04 in 10.0 mi NE 4.6 mph - N/A   Overcast
11:15 AM 69.8 °F 62.6 °F 78% 30.06 in 10.0 mi NNE 3.5 mph - N/A   Overcast
11:35 AM 69.8 °F 64.4 °F 83% 30.07 in 10.0 mi Calm Calm - N/A   Overcast
11:55 AM 69.8 °F 62.6 °F 78% 30.07 in 10.0 mi Calm Calm - N/A   Overcast
12:15 PM 69.8 °F 64.4 °F 83% 30.06 in 10.0 mi Calm Calm - N/A   Overcast
12:35 PM 69.8 °F 64.4 °F 83% 30.05 in 10.0 mi NNE 3.5 mph - N/A   Overcast
12:55 PM 69.8 °F 64.4 °F 83% 30.04 in 10.0 mi NE 3.5 mph - N/A   Overcast
1:15 PM 71.6 °F 64.4 °F 78% 30.04 in 10.0 mi North 3.5 mph - N/A   Overcast
1:35 PM 71.6 °F 64.4 °F 78% 30.03 in 10.0 mi NE 3.5 mph - N/A   Overcast
1:55 PM 73.4 °F 64.4 °F 73% 30.03 in 10.0 mi NNW 3.5 mph - N/A   Mostly Cloudy
2:15 PM 73.4 °F 66.2 °F 78% 30.02 in 10.0 mi NNE 4.6 mph - N/A   Mostly Cloudy
2:35 PM 73.4 °F 66.2 °F 78% 30.02 in 10.0 mi NNE 9.2 mph - N/A   Mostly Cloudy
2:55 PM 73.4 °F 64.4 °F 73% 30.02 in 10.0 mi North 4.6 mph - N/A   Mostly Cloudy
3:15 PM 73.4 °F 64.4 °F 73% 30.01 in 10.0 mi North 3.5 mph - N/A   Overcast
3:35 PM 73.4 °F 64.4 °F 73% 30.01 in 10.0 mi North 3.5 mph - N/A   Mostly Cloudy
3:55 PM 73.4 °F 64.4 °F 73% 30.01 in 10.0 mi North 4.6 mph - N/A   Mostly Cloudy
4:15 PM 75.2 °F 66.2 °F 73% 30.01 in 10.0 mi NNE 4.6 mph - N/A   Mostly Cloudy
4:35 PM 75.2 °F 66.2 °F 73% 30.01 in 10.0 mi NNE 9.2 mph - N/A   Mostly Cloudy
4:55 PM 73.4 °F 66.2 °F 78% 30.01 in 10.0 mi North 5.8 mph - N/A   Mostly Cloudy
5:15 PM 73.4 °F 64.4 °F 73% 30.00 in 10.0 mi NE 4.6 mph - N/A   Overcast
5:35 PM 75.2 °F 66.2 °F 73% 29.99 in 10.0 mi NNE 6.9 mph - N/A   Mostly Cloudy
5:55 PM 73.4 °F 64.4 °F 73% 29.99 in 10.0 mi NE 8.1 mph - N/A   Scattered Clouds
6:15 PM 73.4 °F 66.2 °F 78% 29.99 in 10.0 mi NNE 6.9 mph - N/A   Mostly Cloudy
6:35 PM 71.6 °F 64.4 °F 78% 29.99 in 10.0 mi NNE 5.8 mph - N/A   Mostly Cloudy
6:55 PM 71.6 °F 64.4 °F 78% 29.98 in 10.0 mi NE 5.8 mph - N/A   Mostly Cloudy
7:15 PM 71.6 °F 64.4 °F 78% 29.97 in 10.0 mi NE 6.9 mph - N/A   Overcast
7:36 PM 69.8 °F 64.4 °F 83% 29.97 in 10.0 mi NE 5.8 mph - N/A   Overcast
7:55 PM 69.8 °F 64.4 °F 83% 29.97 in 10.0 mi NE 4.6 mph - N/A   Overcast
8:15 PM 69.8 °F 64.4 °F 83% 29.97 in 10.0 mi ENE 5.8 mph - N/A   Overcast
8:35 PM 69.8 °F 64.4 °F 83% 29.97 in 10.0 mi ENE 5.8 mph - N/A   Overcast
8:55 PM 69.8 °F 64.4 °F 83% 29.97 in 10.0 mi East 4.6 mph - N/A   Overcast
9:15 PM 69.8 °F 64.4 °F 83% 29.98 in 10.0 mi Calm Calm - N/A   Overcast
9:35 PM 68.0 °F 64.4 °F 88% 29.99 in 10.0 mi ENE 5.8 mph - N/A   Overcast
9:55 PM 68.0 °F 64.4 °F 88% 29.99 in 10.0 mi ENE 4.6 mph - N/A   Overcast
10:15 PM 68.0 °F 64.4 °F 88% 29.99 in 10.0 mi ENE 3.5 mph - N/A   Overcast
10:35 PM 68.0 °F 64.4 °F 88% 30.00 in 10.0 mi East 4.6 mph - N/A   Overcast
10:56 PM 68.0 °F 64.4 °F 88% 30.00 in 10.0 mi East 3.5 mph - N/A   Overcast
11:15 PM 68.0 °F 64.4 °F 88% 29.99 in 10.0 mi East 3.5 mph - N/A   Overcast
11:35 PM 68.0 °F 64.4 °F 88% 29.99 in 10.0 mi ENE 6.9 mph - N/A   Overcast
11:55 PM 66.2 °F 62.6 °F 88% 29.98 in 10.0 mi East 4.6 mph - N/A   Scattered Clouds